Location: Newark
(34.6283°N, 36.0776°E)
Time: 21:30:26
(UTC+00:00)

A-11 Canister half - Pass Details

Date: 23 September 2019
Orbit: 1527 x 1682 km, 47.3° (Epoch: 17 October)

Event Time Altitude Azimuth Distance (km) Brightness Sun altitude
Rises 01:13:58 0° 247° (WSW) 4,673 - -27.0°
Reaches altitude 10° 01:17:02 10° 251° (WSW) 3,699 - -26.4°
Exits shadow 01:22:45 41° 269° (W) 2,114 9.2 -25.3°
Maximum altitude 01:26:16 63° 332° (NNW) 1,704 9.1 -24.6°
Drops below altitude 10° 01:35:49 10° 53° (NE) 3,802 12.0 -22.8°
Sets 01:39:02 0° 56° (ENE) 4,810 12.9 -22.1°
